599  
ASUS41 KPHI 030711  
RWRPHI  
 
REGIONAL WEATHER ROUNDUP  
NATIONAL WEATHER SERVICE MOUNT HOLLY NJ  
200 AM EST TUE MAR 03 2015  
 
NOTE: "FAIR" INDICATES FEW OR NO CLOUDS BELOW 12,000 FEET WITH NO  
SIGNIFICANT WEATHER AND/OR S TO VISIBILITY
.  
 
* = STATION DOES NOT REPORT PRECIPITATION (E.G. RAIN, SNOW, ETC.)  
OR FOG.
 
 
NJZ015>026-030800-  
SOUTHERN NEW JERSEY  
 
CITY SKY/WX TMP DP RH WIND PRES REMARKS
 
POMONA CLEAR 24 15 68 NW5 30.41R WCI 18  
RIO GRANDE* CLEAR 30 18 59 NW6 30.41F WCI 24  
MILLVILLE CLEAR 26 17 68 W8 30.40S WCI 18  
WRIGHTSTOWN CLEAR 24 11 57 N10 30.38R WCI 13  
MOUNT HOLLY CLEAR 26 10 50 N12 30.41R WCI 16  
TRENTON CLEAR 25 7 46 N9 30.40R WCI 15  
 

 
NJZ001>014-030800-  
NORTHERN NEW JERSEY  
 
CITY SKY/WX TMP DP RH WIND PRES REMARKS
 
SUSSEX CLEAR 19 6 57 VRB3 30.37S  
ANDOVER* N/A 20 7 57 VRB5 30.37R WCI 13  
MORRISTOWN CLEAR 21 7 53 CALM 30.40R  
NEWARK PTCLDY 25 10 53 NW8 30.40S WCI 16  
TETERBORO CLEAR 23 8 52 NW6 30.39S WCI 16  
CALDWELL CLEAR 22 7 52 CALM 30.40R  
SOMERVILLE CLEAR 20 7 57 N7 30.39S WCI 11  
ALLAIRE* CLEAR 25 9 50 CALM 30.40R  
TOMS RIVER* CLEAR 25 9 50 NW5 30.41R WCI 19  
 

 
PAZ043-044-047-054-055-060>062-066>071-030800-  
EASTERN PENNSYLVANIA  
 
CITY SKY/WX TMP DP RH WIND PRES REMARKS
 
PHILADELPHIA PTCLDY 28 10 46 N12 30.43R WCI 18  
NORTH PHILA CLEAR 27 7 42 N8 30.43R WCI 19  
BLUE BELL CLEAR 27 10 50 CALM 30.40S  
DOYLESTOWN CLEAR 22 8 55 N8 30.39R WCI 12  
QUAKERTOWN* CLEAR 23 9 54 N6 30.40R WCI 16  
POTTSTOWN CLEAR 23 7 50 NE8 30.42R WCI 14  
LANCASTER CLEAR 19 11 70 CALM 30.40R  
COATESVILLE FAIR 25 16 68 NW5 30.38S WCI 19  
READING CLEAR 23 5 46 N8 30.40S WCI 14  
ALLENTOWN CLEAR 17 5 59 CALM 30.40R  
MOUNT POCONO CLEAR 13 5 70 NW8 30.26R WCI 2  
HAZLETON CLEAR 18 9 68 W3 30.34R  
WILKES BARRE CLEAR 18 6 59 N5 30.35S WCI 11  
 

 
DEZALL-MDZ008-012-015-019-020-030800-  
DELAWARE AND EASTERN MARYLAND  
 
CITY SKY/WX TMP DP RH WIND PRES REMARKS
 
WILMINGTON CLEAR 24 16 71 NW5 30.42R WCI 18  
DOVER CLEAR 28 16 60 W9 30.40F WCI 20  
GEORGETOWN CLEAR 27 17 66 CALM 30.41S  
EASTON CLEAR 30 18 61 N3 30.44F  
PATUXENT PTCLDY 31 15 52 N5 30.42R WCI 26  
OCEAN CITY CLEAR 29 17 61 N7 30.42R WCI 22  
WALLOPS ISLAND CLEAR 30 17 58 N13 30.41S WCI 20  
CAMBRIDGE CLEAR 32 18 55 N7 30.40F WCI 26  
SALISBURY CLEAR 31 17 56 N6 30.41F WCI 25  
 

 
PAZ001-021-NYZ056-072-MDZ011-DCZ001-030800-  
OTHER NEARBY LOCATIONS  
 
CITY SKY/WX TMP DP RH WIND PRES REMARKS
 
HARRISBURG PTCLDY 20 11 68 N5 30.40S WCI 13  
STATE COLLEGE PTCLDY 17 7 67 CALM 30.35F  
WILLIAMSPORT CLEAR 14 6 70 CALM 30.41S  
BINGHAMTON MOCLDY 14 7 73 NW3 30.28F  
NEW YORK CITY CLEAR 26 8 46 CALM 30.41R  
BALTIMORE MOCLDY 23 15 71 CALM 30.41F  
WASHINGTON DC MOCLDY 32 16 51 N8 30.42F WCI 25  
 

 
 
CLICK HERE TO GO TO PREVIOUS BULLETINS.

The Nexlab PA Page
The Nexlab NJ Page
The Nexlab DE Page
The Nexlab MD Page Main Text Page